Regional Weather Roundup
Issued by NWS

Home | Current Version | Previous Version | Graphics & Text | Print | Product List | Glossary Off
Versions: 1 2 3 4 5 6 7 8 9 10 11 12 13 14 15 16 17 18 19 20 21 22 23 24 25 26 27 28 29 30 31 32 33 34 35 36 37 38 39 40 41 42 43 44 45 46 47 48 49 50

000
ASUS43 KTOP 270159
RWRKS

WEATHER ROUNDUP FOR KANSAS
NATIONAL WEATHER SERVICE GOODLAND KS
900 PM CDT THU MAR 26 2015

NOTE:  "FAIR" INDICATES FEW OR NO CLOUDS BELOW 12,000 FEET WITH NO
SIGNIFICANT WEATHER AND/OR OBSTRUCTIONS TO VISIBILITY.

KSZ001>006-013>018-027>032-041>047-270300-
NORTHWEST KANSAS

CITY           SKY/WX    TMP DP  RH WIND       PRES   REMARKS
GOODLAND       CLOUDY    50  31  48 N7        30.12S
HAYS           CLEAR     52  25  35 N13       30.07R
HILL CITY      MOCLDY    49  29  46 N12       30.09R
RUSSELL        PTCLDY    51  28  41 N12       30.03R
$$

KSZ061>065-074>080-084>089-270300-
SOUTHWEST KANSAS

CITY           SKY/WX    TMP DP  RH WIND       PRES   REMARKS
DODGE CITY     CLOUDY    54  26  34 N9        30.09R
ELKHART          N/A     53  24  32 W3          N/A
GARDEN CITY    PTCLDY    50  28  42 N13       30.10R
GREAT BEND     PTCLDY    55  27  33 NW14      30.04R
LIBERAL        PTCLDY    48  25  40 NW8       30.12R
$$

KSZ066>073-081>083-090>101-270300-
SOUTHEAST KANSAS

CITY           SKY/WX    TMP DP  RH WIND       PRES   REMARKS
CHANUTE        PTCLDY    44  31  60 S7        30.06S
COFFEYVILLE    CLEAR     45  33  63 SE7       30.07F
HUTCHINSON     MOCLDY    55  34  45 VRB6      30.01R
MEDICINE LODGE   N/A     58  33  39 VRB7G23   30.02R
NEWTON         MOCLDY    50  30  46 S10       30.01R
PARSONS        PTCLDY    46  30  53 CALM      30.08S
WICHITA INTL   MOCLDY    51  32  48 S9        30.01S
WICHITA JABRA  MOCLDY    50  32  50 S9        30.01S
WINFIELD       PTCLDY    45  32  60 S9        30.04F
$$

KSZ007>012-019>026-033>040-048>060-102>105-270300-
NORTHEAST KANSAS

CITY           SKY/WX    TMP DP  RH WIND       PRES   REMARKS
CONCORDIA      CLOUDY    41  35  79 NE20G25   30.08R
EMPORIA        LGT RAIN  49  33  54 NE7       30.04S
LAWRENCE       CLOUDY    48  29  47 N9        30.09R
MANHATTAN      RAIN      48  38  68 W8        30.08R
OLATHE IND     CLOUDY    46  30  53 N9        30.10R
OLATHE EXE     CLOUDY    48  27  44 N5        30.09R
SALINA         CLOUDY    52  37  56 E7G25     30.02R
TOPEKA BILLARD CLOUDY    48  30  49 NE10      30.09R
TOPEKA FORBES  CLOUDY    49  30  48 NE6       30.07R
$$



USA.gov is the U.S. government's official web portal to all federal, state and local government web resources and services.